Location: ???? ?????
(37.9132°N, 22.9869°E)
Time: 20:28:18
(UTC+00:00)

USA 81 - Pass Details

Date: 04 August 2024
Orbit: 784 x 786 km, 85.0° (Epoch: 17 September)

Event Time Altitude Azimuth Distance (km) Brightness Sun altitude
Rises 20:08:12 0° 358° (N) 3,284 8.1 -25.3°
Reaches altitude 10° 20:10:35 10° 360° (N) 2,351 7.2 -25.6°
Enters shadow 20:15:44 73° 73° (ENE) 822 4.0 -26.3°
